User: anonymous   Login
Location: Trois-Rivi�res
(46.3500°N, 72.5500°W)
Time: 08:20:22
(UTC-05:00)
Language:

SJ-11-01 - Orbit

View from above orbital plane
View from above orbital plane
View from above satellite
View from above satellite

Ground track
Ground track

The orbit data is extracted from the following two-line orbital elements,

1 36088U 09061A   17327.12226615  .00000124  00000-0  35335-4 0  9996
2 36088  98.1167  11.8004 0012563 125.1897 235.0493 14.59985889427839
Epoch (UTC): 23 November 2017 02:56:03
Eccentricity: 0.0012563
inclination: 98.1167°
perigee height: 684 km
apogee height: 702 km
right ascension of ascending node: 11.8004°
argument of perigee: 125.1897°
revolutions per day: 14.59985889
mean anomaly at epoch: 235.0493°
orbit number at epoch: 42783

The dashed part of the orbit path shows where the satellite is in the earth's shadow,  

DLR